When you browse on this site, cookies collect data to enhance your experience and personalize the content and advertising you see.
Visit our Privacy Policy to learn more. By continuing to use the site, you agree to this use of cookies and data.

Hourly Weather Mosquera

Today, 14 July, Tuesday

Time Temperature Precipitation Wind Pressure Humidity
00:00 +10°C° 0.3 mm 2 mps 561 mmHg 88%
01:00 +10°C° 0.3 mm 2 mps 561 mmHg 88%
02:00 +10°C° 0.1 mm 2 mps 560 mmHg 88%
03:00 +10°C° 0.1 mm 2 mps 560 mmHg 88%
04:00 +10°C° 0.1 mm 2 mps 560 mmHg 88%
05:00 +10°C° 0 mm 2 mps 561 mmHg 87%
06:00 +12°C° 0 mm 2 mps 561 mmHg 87%
07:00 +12°C° 0 mm 1 mps 562 mmHg 87%
08:00 +14°C° 0.1 mm 1 mps 563 mmHg 80%
09:00 +15°C° 0.1 mm 1 mps 564 mmHg 72%
10:00 +18°C° 0.1 mm 1 mps 564 mmHg 65%
11:00 +18°C° 0.3 mm 2 mps 564 mmHg 63%
12:00 +18°C° 0.3 mm 2 mps 564 mmHg 62%
13:00 +19°C° 0.3 mm 2 mps 564 mmHg 60%
14:00 +18°C° 0.3 mm 2 mps 563 mmHg 63%
15:00 +18°C° 0.3 mm 2 mps 562 mmHg 66%
16:00 +18°C° 0.3 mm 1 mps 561 mmHg 69%
17:00 +15°C° 0.2 mm 1 mps 561 mmHg 74%
18:00 +14°C° 0.2 mm 1 mps 561 mmHg 80%
19:00 +12°C° 0.2 mm 1 mps 561 mmHg 85%
20:00 +12°C° 0 mm 1 mps 561 mmHg 84%
21:00 +12°C° 0 mm 1 mps 561 mmHg 83%
22:00 +10°C° 0 mm 2 mps 562 mmHg 82%
23:00 +10°C° 0 mm 2 mps 561 mmHg 83%

Tomorrow, 15 July, Wednesday

Time Temperature Precipitation Wind Pressure Humidity
00:00 +10°C° 0 mm 2 mps 561 mmHg 84%
01:00 +9°C° 0 mm 2 mps 561 mmHg 85%
02:00 +11°C° 0 mm 1 mps 561 mmHg 85%
03:00 +11°C° 0 mm 1 mps 560 mmHg 85%
04:00 +11°C° 0 mm 1 mps 560 mmHg 85%
05:00 +11°C° 0.1 mm 1 mps 561 mmHg 85%
06:00 +12°C° 0.1 mm 1 mps 561 mmHg 85%
07:00 +12°C° 0.1 mm 1 mps 562 mmHg 85%
08:00 +13°C° 0.1 mm 1 mps 562 mmHg 80%
09:00 +15°C° 0.1 mm 1 mps 563 mmHg 75%
10:00 +16°C° 0.1 mm 1 mps 564 mmHg 70%
11:00 +18°C° 0.3 mm 1 mps 563 mmHg 67%
12:00 +19°C° 0.3 mm 1 mps 563 mmHg 64%
13:00 +20°C° 0.3 mm 1 mps 563 mmHg 61%
14:00 +19°C° 0.4 mm 1 mps 562 mmHg 65%
15:00 +19°C° 0.4 mm 1 mps 562 mmHg 68%
16:00 +18°C° 0.4 mm 1 mps 561 mmHg 72%
17:00 +15°C° 0.4 mm 1 mps 561 mmHg 76%
18:00 +14°C° 0.4 mm 1 mps 560 mmHg 81%
19:00 +12°C° 0.4 mm 1 mps 560 mmHg 86%
20:00 +12°C° 0.1 mm 1 mps 560 mmHg 85%
21:00 +12°C° 0.1 mm 1 mps 561 mmHg 84%
22:00 +12°C° 0.1 mm 1 mps 561 mmHg 84%
23:00 +12°C° 0 mm 1 mps 561 mmHg 84%

Day after tomorrow, 16 July, Thursday

Time Temperature Precipitation Wind Pressure Humidity
00:00 +11°C° 0 mm 1 mps 561 mmHg 84%
01:00 +11°C° 0 mm 1 mps 560 mmHg 85%
02:00 +11°C° 0 mm 1 mps 560 mmHg 85%
03:00 +10°C° 0 mm 1 mps 560 mmHg 85%
04:00 +10°C° 0 mm 1 mps 559 mmHg 85%
05:00 +11°C° 0 mm 1 mps 560 mmHg 84%
06:00 +11°C° 0 mm 1 mps 560 mmHg 83%
07:00 +12°C° 0 mm 1 mps 561 mmHg 82%
08:00 +14°C° 0 mm 1 mps 562 mmHg 75%
09:00 +16°C° 0 mm 1 mps 563 mmHg 67%
10:00 +19°C° 0 mm 1 mps 564 mmHg 60%
11:00 +18°C° 0.2 mm 2 mps 564 mmHg 62%
12:00 +18°C° 0.2 mm 2 mps 563 mmHg 64%
13:00 +18°C° 0.2 mm 2 mps 563 mmHg 66%
14:00 +17°C° 0.5 mm 2 mps 562 mmHg 69%
15:00 +17°C° 0.5 mm 2 mps 561 mmHg 71%
16:00 +18°C° 0.5 mm 1 mps 561 mmHg 74%
17:00 +15°C° 0.7 mm 1 mps 561 mmHg 78%
18:00 +14°C° 0.7 mm 1 mps 560 mmHg 82%
19:00 +13°C° 0.7 mm 1 mps 560 mmHg 86%
20:00 +12°C° 0.3 mm 1 mps 560 mmHg 87%
21:00 +12°C° 0.3 mm 1 mps 561 mmHg 87%
22:00 +12°C° 0.3 mm 2 mps 561 mmHg 87%
23:00 +12°C° 0.1 mm 1 mps 561 mmHg 87%

17 July, Friday

Time Temperature Precipitation Wind Pressure Humidity
00:00 +11°C° 0.1 mm 1 mps 561 mmHg 87%
01:00 +11°C° 0.1 mm 1 mps 560 mmHg 87%
02:00 +11°C° 0 mm 1 mps 560 mmHg 87%
03:00 +11°C° 0 mm 1 mps 560 mmHg 87%
04:00 +11°C° 0 mm 1 mps 560 mmHg 87%
05:00 +12°C° 0 mm 1 mps 560 mmHg 87%
06:00 +12°C° 0 mm 1 mps 561 mmHg 87%
07:00 +12°C° 0 mm 1 mps 561 mmHg 86%
08:00 +14°C° 0.1 mm 1 mps 562 mmHg 80%
09:00 +15°C° 0.1 mm 1 mps 563 mmHg 74%
10:00 +18°C° 0.1 mm 1 mps 564 mmHg 68%
11:00 +18°C° 0.5 mm 1 mps 564 mmHg 67%
12:00 +19°C° 0.5 mm 1 mps 563 mmHg 67%
13:00 +18°C° 0.5 mm 2 mps 562 mmHg 66%
14:00 +18°C° 0.3 mm 2 mps 562 mmHg 67%
15:00 +17°C° 0.3 mm 2 mps 562 mmHg 68%
16:00 +18°C° 0.3 mm 1 mps 561 mmHg 69%
17:00 +16°C° 0.4 mm 1 mps 561 mmHg 74%
18:00 +14°C° 0.4 mm 1 mps 560 mmHg 79%
19:00 +13°C° 0.4 mm 1 mps 560 mmHg 84%
20:00 +12°C° 0.1 mm 1 mps 560 mmHg 84%
21:00 +12°C° 0.1 mm 1 mps 561 mmHg 84%
22:00 +12°C° 0.1 mm 1 mps 561 mmHg 84%
23:00 +11°C° 0 mm 1 mps 561 mmHg 84%

18 July, Saturday

Time Temperature Precipitation Wind Pressure Humidity
00:00 +11°C° 0 mm 1 mps 560 mmHg 85%
01:00 +11°C° 0 mm 1 mps 560 mmHg 85%
02:00 +11°C° 0 mm 1 mps 560 mmHg 86%
03:00 +10°C° 0 mm 1 mps 560 mmHg 86%
04:00 +10°C° 0 mm 1 mps 559 mmHg 86%
05:00 +11°C° 0 mm 1 mps 560 mmHg 85%
06:00 +11°C° 0 mm 1 mps 560 mmHg 84%
07:00 +12°C° 0 mm 1 mps 561 mmHg 84%
08:00 +13°C° 0.1 mm 1 mps 562 mmHg 81%
09:00 +14°C° 0.1 mm 1 mps 562 mmHg 78%
10:00 +15°C° 0.1 mm 1 mps 563 mmHg 75%
11:00 +16°C° 0.3 mm 2 mps 563 mmHg 72%
12:00 +17°C° 0.3 mm 2 mps 563 mmHg 69%
13:00 +18°C° 0.3 mm 2 mps 563 mmHg 66%
14:00 +18°C° 0.4 mm 2 mps 562 mmHg 69%
15:00 +17°C° 0.4 mm 2 mps 561 mmHg 71%
16:00 +18°C° 0.4 mm 1 mps 561 mmHg 74%
17:00 +15°C° 0.3 mm 1 mps 560 mmHg 78%
18:00 +14°C° 0.3 mm 1 mps 560 mmHg 83%
19:00 +12°C° 0.3 mm 1 mps 560 mmHg 87%
20:00 +12°C° 0.1 mm 1 mps 560 mmHg 87%
21:00 +12°C° 0.1 mm 2 mps 560 mmHg 87%
22:00 +10°C° 0.1 mm 2 mps 561 mmHg 87%
23:00 +10°C° 0 mm 2 mps 560 mmHg 88%

19 July, Sunday

Time Temperature Precipitation Wind Pressure Humidity
00:00 +10°C° 0 mm 2 mps 560 mmHg 89%
01:00 +10°C° 0 mm 2 mps 560 mmHg 89%
02:00 +9°C° 0 mm 2 mps 559 mmHg 89%
03:00 +9°C° 0 mm 2 mps 559 mmHg 88%
04:00 +9°C° 0 mm 2 mps 559 mmHg 88%
05:00 +11°C° 0 mm 1 mps 560 mmHg 87%
06:00 +12°C° 0 mm 1 mps 560 mmHg 86%
07:00 +12°C° 0 mm 1 mps 561 mmHg 85%
08:00 +14°C° 0.1 mm 1 mps 562 mmHg 79%
09:00 +16°C° 0.1 mm 1 mps 563 mmHg 72%
10:00 +19°C° 0.1 mm 1 mps 564 mmHg 65%
11:00 +19°C° 0.5 mm 1 mps 563 mmHg 66%
12:00 +19°C° 0.5 mm 1 mps 563 mmHg 67%
13:00 +18°C° 0.5 mm 2 mps 562 mmHg 68%
14:00 +19°C° 0.6 mm 1 mps 562 mmHg 69%
15:00 +19°C° 0.6 mm 1 mps 561 mmHg 70%
16:00 +18°C° 0.6 mm 1 mps 561 mmHg 72%
17:00 +16°C° 0.5 mm 1 mps 560 mmHg 77%
18:00 +14°C° 0.5 mm 1 mps 560 mmHg 82%
19:00 +13°C° 0.5 mm 1 mps 559 mmHg 87%
20:00 +12°C° 0.2 mm 1 mps 560 mmHg 86%
21:00 +12°C° 0.2 mm 1 mps 560 mmHg 86%
22:00 +12°C° 0.2 mm 1 mps 560 mmHg 86%
23:00 +12°C° 0.3 mm 1 mps 560 mmHg 86%
Show more